Back to catalog

YAOGAN-32 2A

AliveMilitarySSO
NORAD 49383·PAYLOAD·🇨🇳 China

Launched Nov 3, 2021 from Jiuquan Satellite Launch Center

Loading…

Next Passes (next 24 hours)

TLE

FreshSource: Space-Track

Epoch: Sep 14, 2026, 14:52 UTC

1 49383U 21099A   26257.61996208  .00000530  00000-0  10966-3 0  9994
2 49383  98.2597  31.6104 0000471  26.0364 334.0862 14.64314062259459

Track YAOGAN-32 2A in real time with AllMySat

Download on the App Store